Salida, CO

11:45 PM MDT on August 20, 2017 (GMT -0600)
Salida

Weather History for KANK - February, 2012

Change the Weather History Date:

Wednesday, February 29, 2012

  Actual Average (KGUC) Record (KGUC)
Temperature  
Mean Temperature 36 °F -  
Max Temperature 44 °F 31 °F 44 °F (2016)
Min Temperature 27 °F 8 °F -4 °F (2008)
Degree Days  
Heating Degree Days 30    
Moisture  
Dew Point 10 °F    
Average Humidity 38    
Maximum Humidity 54    
Minimum Humidity 21    
Precipitation  
Precipitation 0.00 in - - ()
Sea Level Pressure  
Sea Level Pressure 30.01 in    
Wind  
Wind Speed 18 mph (SW)    
Max Wind Speed 33 mph    
Max Gust Speed 51 mph    
Visibility 10 miles    
Events      
Averages and records for this station are not official NWS values.
T = Trace of Precipitation, MM = Missing Value Source: NWS Daily Summary

Daily Weather History Graph

Daily Weather History Graph

Search for Another Location

Airport or City:

Trip Planner

Search our weather history database for the weather conditions in past years. The results will help you decide how hot, cold, wet, or windy it might be!

Date:

Astronomy

Feb. 29, 2012 Rise Set
Actual Time 6:36 AM MST 5:56 PM MST
Civil Twilight 6:10 AM MST 6:23 PM MST
Nautical Twilight 5:39 AM MST 6:54 PM MST
Astronomical Twilight 5:08 AM MST 7:24 PM MST
Moon 10:35 AM MST (2/29) 12:40 AM MST (2/29)
Length of Visible Light 12h 13m
Length of Day
11h 19m
Waxing Crescent, 48% of the Moon is Illuminated
Feb 29
Waxing Crescent
Feb 29
First Quarter
Mar 8
Full
Mar 14
Last Quarter
Mar 22
New

Hourly Weather History & Observations

Time (MST) Temp. Windchill Dew Point Humidity Pressure Visibility Wind Dir Wind Speed Gust Speed Precip Events Conditions
12:15 AM 29.5 °F 14.0 °F 12.6 °F 49% 29.94 in 10.0 mi West 31.1 mph 42.6 mph N/A   Clear
12:35 AM 29.3 °F 13.7 °F 12.9 °F 51% 29.94 in 10.0 mi West 31.1 mph 42.6 mph N/A   Clear
12:55 AM 29.3 °F 13.3 °F 12.2 °F 49% 29.94 in 10.0 mi West 33.4 mph 41.4 mph N/A   Clear
1:15 AM 29.3 °F 13.5 °F 12.2 °F 49% 29.94 in 10.0 mi WSW 32.2 mph 50.6 mph N/A   Clear
1:35 AM 29.1 °F 14.5 °F 12.2 °F 49% 29.94 in 10.0 mi West 26.5 mph 43.7 mph N/A   Clear
1:55 AM 29.1 °F 14.2 °F 12.6 °F 50% 29.95 in 10.0 mi West 27.6 mph 47.2 mph N/A   Clear
2:15 AM 29.1 °F 14.0 °F 12.2 °F 49% 29.96 in 10.0 mi West 28.8 mph 49.5 mph N/A   Clear
2:35 AM 29.3 °F 16.2 °F 12.2 °F 49% 29.97 in 10.0 mi West 20.7 mph 34.5 mph N/A   Clear
2:55 AM 28.2 °F 18.9 °F 13.5 °F 54% 30.00 in 10.0 mi WNW 10.4 mph 23.0 mph N/A   Clear
3:15 AM 28.2 °F 21.0 °F 13.6 °F 54% 30.01 in 10.0 mi NNW 6.9 mph 19.6 mph N/A   Clear
3:35 AM 28.2 °F 21.0 °F 13.5 °F 54% 30.02 in 10.0 mi NW 6.9 mph 16.1 mph N/A   Clear
3:55 AM 28.6 °F 24.8 °F 12.9 °F 52% 30.03 in 10.0 mi ENE 3.5 mph - N/A   Clear
4:15 AM 28.4 °F - 12.9 °F 52% 30.03 in 10.0 mi Calm Calm - N/A   Clear
4:35 AM 28.0 °F - 13.5 °F 54% 30.05 in 10.0 mi Calm Calm - N/A   Clear
4:55 AM 27.9 °F - 12.9 °F 54% 30.05 in 10.0 mi Calm Calm - N/A   Clear
5:15 AM 27.7 °F 17.6 °F 11.8 °F 51% 30.06 in 10.0 mi SW 11.5 mph - N/A   Clear
5:35 AM 27.7 °F 17.1 °F 11.5 °F 51% 30.07 in 10.0 mi SW 12.7 mph - N/A   Clear
5:55 AM 27.7 °F 18.8 °F 11.3 °F 50% 30.07 in 10.0 mi SW 9.2 mph 16.1 mph N/A   Clear
6:15 AM 28.4 °F 16.6 °F 10.8 °F 48% 30.06 in 10.0 mi SSW 16.1 mph 24.2 mph N/A   Clear
6:35 AM 27.9 °F 16.3 °F 10.4 °F 48% 30.07 in 10.0 mi WSW 15.0 mph 20.7 mph N/A   Clear
6:55 AM 28.4 °F 17.0 °F 9.3 °F 45% 30.07 in 10.0 mi SSW 15.0 mph 21.9 mph N/A   Clear
7:15 AM 28.6 °F 16.0 °F 9.1 °F 44% 30.07 in 10.0 mi SW 18.4 mph 23.0 mph N/A   Clear
7:35 AM 29.1 °F 17.9 °F 9.0 °F 43% 30.08 in 10.0 mi SW 15.0 mph 29.9 mph N/A   Clear
7:55 AM 30.0 °F 18.7 °F 9.1 °F 42% 30.08 in 10.0 mi SSW 16.1 mph 23.0 mph N/A   Clear
8:15 AM 31.6 °F 20.4 °F 7.9 °F 37% 30.09 in 10.0 mi SW 17.3 mph 27.6 mph N/A   Clear
8:35 AM 32.0 °F 20.1 °F 8.1 °F 37% 30.08 in 10.0 mi SW 19.6 mph 31.1 mph N/A   Clear
8:55 AM 31.8 °F 20.6 °F 9.9 °F 40% 30.07 in 10.0 mi SW 17.3 mph 35.7 mph N/A   Clear
9:15 AM 32.5 °F 20.2 °F 8.6 °F 37% 30.07 in 10.0 mi SW 21.9 mph 34.5 mph N/A   Clear
9:35 AM 34.9 °F 27.1 °F 6.6 °F 31% 30.07 in 10.0 mi SW 10.4 mph 29.9 mph N/A   Clear
9:55 AM 36.1 °F 25.2 °F 6.6 °F 29% 30.07 in 10.0 mi SW 20.7 mph 27.6 mph N/A   Clear
10:15 AM 36.9 °F 26.5 °F 7.9 °F 30% 30.07 in 10.0 mi SSW 19.6 mph 32.2 mph N/A   Clear
10:35 AM 37.6 °F 28.8 °F 7.5 °F 29% 30.06 in 10.0 mi SSW 15.0 mph 28.8 mph N/A   Clear
10:55 AM 38.7 °F 30.1 °F 8.2 °F 28% 30.07 in 10.0 mi SSW 15.0 mph 27.6 mph N/A   Clear
11:15 AM 39.2 °F 30.5 °F 9.0 °F 29% 30.07 in 10.0 mi SSW 16.1 mph 28.8 mph N/A   Clear
11:35 AM 40.1 °F 34.1 °F 10.8 °F 30% 30.06 in 10.0 mi WSW 9.2 mph 19.6 mph N/A   Clear
11:55 AM 40.1 °F 32.7 °F 9.9 °F 29% 30.05 in 10.0 mi SSW 12.7 mph 24.2 mph N/A   Clear
12:15 PM 39.7 °F 32.7 °F 10.2 °F 30% 30.04 in 10.0 mi South 11.5 mph 21.9 mph N/A   Clear
12:35 PM 41.2 °F 33.4 °F 11.3 °F 30% 30.03 in 10.0 mi SW 15.0 mph 20.7 mph N/A   Clear
12:55 PM 41.4 °F 34.3 °F 11.1 °F 29% 30.01 in 10.0 mi South 12.7 mph 21.9 mph N/A   Clear
1:15 PM 42.1 °F 35.2 °F 11.7 °F 29% 30.00 in 10.0 mi South 12.7 mph 23.0 mph N/A   Clear
1:35 PM 42.6 °F 36.3 °F 11.3 °F 28% 30.00 in 10.0 mi South 11.5 mph 19.6 mph N/A   Clear
1:55 PM 43.2 °F 35.3 °F 11.1 °F 27% 30.00 in 10.0 mi South 17.3 mph 23.0 mph N/A   Clear
2:15 PM 43.2 °F 35.6 °F 11.1 °F 27% 29.99 in 10.0 mi South 16.1 mph 23.0 mph N/A   Clear
2:35 PM 43.9 °F 39.9 °F 10.4 °F 26% 29.99 in 10.0 mi South 6.9 mph 17.3 mph N/A   Clear
2:55 PM 44.1 °F 39.5 °F 9.0 °F 24% 29.98 in 10.0 mi SSW 8.1 mph - N/A   Clear
3:15 PM 43.9 °F 39.9 °F 10.4 °F 26% 29.98 in 10.0 mi SSW 6.9 mph 19.6 mph N/A   Clear
3:35 PM 43.7 °F 36.0 °F 6.4 °F 22% 29.98 in 10.0 mi West 17.3 mph 27.6 mph N/A   Clear
3:55 PM 43.0 °F 35.4 °F 5.4 °F 21% 29.98 in 10.0 mi West 16.1 mph 29.9 mph N/A   Clear
4:15 PM 43.0 °F 34.8 °F 6.6 °F 22% 29.98 in 10.0 mi WSW 18.4 mph 23.0 mph N/A   Clear
4:35 PM 41.0 °F 32.8 °F 6.8 °F 24% 29.97 in 10.0 mi WSW 16.1 mph 21.9 mph N/A   Clear
4:55 PM 41.0 °F 34.3 °F 8.4 °F 26% 29.96 in 10.0 mi SW 11.5 mph - N/A   Clear
5:15 PM 39.2 °F 33.0 °F 8.6 °F 28% 29.96 in 10.0 mi SW 9.2 mph - N/A   Clear
5:35 PM 38.7 °F 31.4 °F 9.0 °F 29% 29.96 in 10.0 mi SW 11.5 mph 18.4 mph N/A   Clear
5:55 PM 37.4 °F 28.9 °F 9.5 °F 32% 29.95 in 10.0 mi SW 13.8 mph 17.3 mph N/A   Clear
6:15 PM 36.9 °F 30.7 °F 9.9 °F 33% 29.95 in 10.0 mi SSW 8.1 mph 18.4 mph N/A   Clear
6:35 PM 36.5 °F 29.7 °F 10.9 °F 35% 29.95 in 10.0 mi South 9.2 mph - N/A   Clear
6:55 PM 35.2 °F 29.5 °F 11.5 °F 37% 29.95 in 10.0 mi SSW 6.9 mph - N/A   Clear
7:15 PM 34.7 °F 29.6 °F 11.5 °F 38% 29.95 in 10.0 mi SSW 5.8 mph - N/A   Clear
7:35 PM 34.7 °F 28.1 °F 11.3 °F 38% 29.93 in 10.0 mi SSW 8.1 mph - N/A   Clear
7:55 PM 34.2 °F 26.8 °F 11.7 °F 39% 29.93 in 10.0 mi South 9.2 mph - N/A   Clear
8:15 PM 34.2 °F 30.0 °F 11.5 °F 39% 29.93 in 10.0 mi West 4.6 mph - N/A   Clear
8:35 PM 32.9 °F 26.7 °F 12.9 °F 44% 29.93 in 10.0 mi SW 6.9 mph - N/A   Clear
8:55 PM 34.2 °F 28.2 °F 12.9 °F 42% 29.93 in 10.0 mi SW 6.9 mph - N/A   Clear
9:15 PM 33.6 °F 28.4 °F 14.0 °F 45% 29.94 in 10.0 mi South 5.8 mph - N/A   Clear
9:35 PM 33.1 °F 30.0 °F 14.0 °F 46% 29.94 in 10.0 mi South 3.5 mph - N/A   Clear
9:55 PM 33.6 °F 29.4 °F 12.7 °F 42% 29.94 in 10.0 mi SE 4.6 mph - N/A   Clear
10:15 PM 32.7 °F 26.4 °F 13.1 °F 44% 29.93 in 10.0 mi SE 6.9 mph - N/A   Clear
10:35 PM 34.0 °F 31.0 °F 11.8 °F 40% 29.93 in 10.0 mi SSW 3.5 mph - N/A   Clear
10:55 PM 33.3 °F 27.1 °F 11.8 °F 41% 29.93 in 10.0 mi SSW 6.9 mph - N/A   Clear
11:15 PM 33.3 °F 26.4 °F 11.8 °F 41% 29.92 in 10.0 mi SSW 8.1 mph - N/A   Clear
11:35 PM 32.4 °F 26.0 °F 12.2 °F 43% 29.91 in 10.0 mi SSW 6.9 mph - N/A   Clear
11:55 PM 32.9 °F 24.7 °F 12.2 °F 42% 29.90 in 10.0 mi SSW 10.4 mph 16.1 mph N/A   Clear